Regional Weather Roundup
Issued by NWS Newport/Morehead, NC

Current Version | Previous Version | Text Only | Print | Product List | Glossary Off
Versions: 1 2 3 4 5 6 7 8 9 10 11 12 13 14 15 16 17 18 19 20 21 22 23 24 25 26 27 28 29 30 31 32 33 34 35 36 37 38 39 40 41 42 43 44 45 46 47 48 49 50
232 ASUS42 KMHX 211126 RWRMHX WEATHER ROUNDUP FOR EASTERN NORTH CAROLINA NATIONAL WEATHER SERVICE NEWPORT/MOREHEAD CITY NC 700 AM EDT MON AUG 21 2017 NOTE: "FAIR" INDICATES FEW OR NO CLOUDS BELOW 12,000 FEET WITH NO SIGNIFICANT WEATHER AND/OR OBSTRUCTIONS TO VISIBILITY NCZ015>017-031-032-045>047-102-103-211200- NORTH COAST CITY SKY/WX TMP DP RH WIND PRES REMARKS EDENTON FOG 73 72 96 CALM 30.21R VSB 1 ELIZABETH CITY CLEAR 76 76 100 E3 30.20R KITTY HAWK CLOUDY 76 76 100 CALM 30.20R MANTEO CLOUDY 77 76 95 SE5 30.21R $$ NCZ045>047-081-094-103-104-211200- CENTRAL COAST CITY SKY/WX TMP DP RH WIND PRES REMARKS FRISCO MOCLDY 78 78 100 E5 30.19R $$ NCZ095-097-098-100-101-211200- SOUTHERN COAST CITY SKY/WX TMP DP RH WIND PRES REMARKS BEAUFORT MOCLDY 78 78 100 NE3 30.18R CEDAR ISLAND NOT AVBL JACKSONVILLE CLOUDY 76 76 100 N5 30.19R PINEY ISLAND PTSUNNY N/A N/A N/A NE3 30.19R WILMINGTON MOCLDY 76 75 97 CALM 30.18R $$ NCZ011>013-027>030-043-044-078>080-089-090>093-098-211200- COASTAL PLAIN CITY SKY/WX TMP DP RH WIND PRES REMARKS AHOSKIE NOT AVBL CLINTON CLOUDY 73 73 100 CALM 30.21R VSB 1 ELIZABETHTOWN NOT AVBL GOLDSBORO FOG 73 73 100 VRB2 30.20R VSB 1/8 GREENVILLE FOG 72 72 100 CALM 30.22R VSB 3/4 HAVELOCK PTCLDY 76 74 93 CALM 30.20R KENANSVILLE CLOUDY 72 72 100 CALM 30.21R FOG KINSTON FOG 72 72 100 CALM 30.21R VSB<1/4 NEW BERN CLOUDY 75 75 100 CALM 30.20R RICHLANDS FOG 73 73 100 CALM 30.21R VSB 1/4 ROCKY MOUNT FOG 70 70 100 CALM 30.21R VSB<1/4 WASHINGTON FOG 73 72 98 CALM 30.22R VSB<1/4 WHITEVILLE PTCLDY 75 74 97 CALM 30.19R FOG $$ AMZ130-135-150-152-154-156-158-170-250-252-270-ANZ085-086-088-633-658-670-211200- MARINE OBSERVATIONS STATION/POSITION TIME TEMP WIND PRES WAVE SWELL AIR SEA DIR/SP/G HT/PER HT/PER (UTC) (F) (DEG/KT/KT) (MB) (FT/S) (FT/S) CHESAPEAKE LIGHT NOT AVBL 64 E VA BEACH 1050 78 79 90/ 8/ 10 1023.1 2/ 8 2/ 8 DUCK 1100 78 76 80/ 6/ 7 1022.3 2 E DUCK 1100 79 N/A 2/ 8 OREGON INLET 1100 78 80 70/ 5/ 6 1022.6 13E OREGON INLT 1048 79 N/A 2/ 8 2/ 8 HATTERAS CG 1100 79 78 70/ 5/ 6 1022.4 DIAMOND BUOY 1050 82 85 40/ 8/ 10 1021.7 2/ 8 2/ 8 CAPE LOOKOUT 1100 81 50/ 7/ 7 1021.6 BEAUFORT LAB 1100 78 81 20/ 3/ 4 1021.6 30 SE NEW RVR IN 1108 81 84 90/ 6/ 8 1021.9 30 SE NEW RVR IN 1043 84 N/A 2/ 8 27 SE WRIGHTSVLE 1108 83 84 250/ 2/ 4 1021.8 5 SE WRIGHTSVLE 1108 82 83 330/ 2/ 4 1021.6 225 S CAPE HAT 1050 83 84 150/ 6/ 8 1022.0 3/ 9 2/ 9 41 SE CHARLESTON 1110 81 85 90/ 8/ 10 1020.6 $$

USA.gov is the U.S. government's official web portal to all federal, state and local government web resources and services.